Vertical_Velocity
0 -0 -1 -1 -2 -2 -1 -1 -0 -1 -1 -1 -1 -1 -2 -1 -2 -2 -1 -1 -2 -3 -4 -4 -4 -4 -4 -3 -3 -3 -3 -2 -1 -1 -0 -0 -1 -1 -1 -1 -2 -2 -2 -3 -2 -2 -2 -1 -2 -4 -4 -3 -2 -2 -2 -2 -2 -2 -1 -0 -2 -3 -4 -3 1 8 11 4 -2
-0 0 0 -0 -1 -1 -1 -0 0 0 0 0 -0 -1 -1 -1 -2 -2 -2 -1 -1 -2 -3 -4 -3 -3 -3 -3 -2 -3 -3 -4 -3 -1 -0 0 -0 -1 -1 -2 -2 -2 -3 -3 -3 -3 -3 -2 -3 -4 -4 -3 -1 -1 -1 0 -1 -2 -2 -1 -2 -2 -2 -3 -1 5 9 7 1
-1 -0 0 1 -0 -1 -1 -1 -0 0 0 0 1 1 0 -1 -1 -2 -1 -1 -1 -1 -2 -3 -3 -3 -2 -2 -2 -2 -2 -4 -4 -3 -2 -1 -0 -1 -1 -2 -2 -2 -2 -3 -4 -4 -4 -4 -4 -4 -3 -2 -0 0 1 2 1 -1 -3 -2 -1 -1 -1 -3 -0 3 6 7 3
1 0 -0 -0 -0 -1 -1 -2 -2 -1 -0 0 1 1 1 1 -0 -1 -1 -0 0 -0 -1 -2 -3 -3 -2 -2 -2 -1 -1 -2 -3 -4 -3 -2 -1 -1 -1 -2 -2 -2 -2 -2 -3 -4 -4 -5 -5 -5 -3 -1 0 1 2 3 2 -0 -2 -1 -1 -1 -1 0 2 2 2 4 4
1 1 0 -0 -0 -0 -1 -1 -1 -2 -2 -1 -0 0 1 1 0 -0 -1 -1 -0 -0 -1 -1 -2 -2 -1 -1 -1 -1 -1 -1 -2 -3 -3 -3 -2 -1 -1 -1 -2 -2 -3 -2 -3 -3 -4 -5 -5 -5 -3 -1 1 2 3 4 2 0 -1 -1 -1 -0 2 5 3 1 -0 4 6
-1 -1 -0 0 0 -0 -0 -0 -0 -1 -1 -1 -1 -0 0 1 0 -0 -1 -1 -1 -1 -0 -0 -1 -0 -0 0 0 -0 -1 -1 -1 -2 -3 -3 -2 -2 -1 -1 -1 -2 -2 -3 -3 -3 -3 -4 -5 -4 -2 -0 0 2 3 4 2 1 -0 -1 -1 1 4 7 3 0 1 7 7
-2 -2 -1 -1 -0 -0 0 0 0 0 -0 -1 -0 -0 -0 0 0 -0 -0 -1 -1 -1 -1 -1 -1 -1 -0 -0 -0 -1 -1 -2 -1 -1 -2 -2 -2 -2 -1 -1 -1 -0 -1 -2 -2 -3 -3 -3 -4 -3 -2 -0 0 2 3 3 2 0 -1 -1 -0 2 5 5 3 1 2 8 8
-0 -0 -0 -0 -0 0 0 0 0 -0 -0 -1 -1 -0 -0 0 0 -0 -0 -0 -0 -1 -1 -1 -1 -1 -0 -0 -0 -1 -2 -2 -2 -2 -1 -1 -1 -1 -1 -1 -0 1 1 -1 -2 -3 -3 -3 -3 -2 -1 0 1 1 2 2 1 -0 -1 -1 -0 1 3 5 4 1 -0 5 10
-0 0 1 1 1 1 1 1 1 0 -0 -0 -0 -0 0 0 0 -0 -1 -1 -1 -1 -1 -1 -1 -0 0 1 1 -0 -1 -2 -2 -2 -2 -1 -1 -1 -1 -1 0 1 1 0 -1 -2 -3 -2 -2 -1 -1 0 1 1 1 1 -0 -1 -2 -2 -1 1 3 4 3 0 -2 -0 7
-1 -1 -0 -0 0 1 1 1 1 1 1 0 0 1 1 1 1 0 -1 -1 -1 -1 -1 -1 -1 -1 0 1 1 0 -1 -2 -2 -2 -2 -2 -1 -1 -1 -1 -1 -0 -0 -1 -2 -2 -2 -1 -1 -1 -0 0 1 0 0 0 -0 -1 -2 -3 -1 1 2 1 1 0 -0 -3 -0
-1 -1 -1 -1 -1 -0 -0 0 1 1 1 1 1 1 1 2 2 1 0 -1 -1 -1 -1 -1 -1 -1 -1 -0 -0 -0 -1 -2 -2 -3 -3 -2 -1 -1 -1 -1 -1 -1 -2 -2 -2 -2 -1 -1 -0 0 1 1 0 -0 -0 -0 0 -1 -3 -4 -1 -0 -0 -2 -1 1 1 -1 -4
-1 -1 -1 -1 -1 -1 -0 -0 0 0 1 0 0 1 1 2 2 1 1 0 -0 -0 -0 -0 -1 -1 -1 -1 -1 -1 -1 -1 -2 -3 -3 -3 -2 -1 -1 -1 -1 -1 -2 -2 -2 -2 -1 -0 0 0 1 1 1 0 0 0 1 -1 -3 -4 -1 -0 -1 -2 -2 -2 -1 -0 -3
-1 -1 -1 -1 -1 -1 -0 -0 0 0 0 0 -0 -0 1 1 2 1 1 0 -0 -0 -0 0 0 -0 -1 -1 -1 -2 -2 -2 -2 -2 -2 -2 -2 -2 -1 -1 -1 -2 -2 -2 -2 -2 -1 -0 -1 -0 0 0 1 1 1 1 -0 -1 -2 -2 -0 -1 -2 -3 -5 -4 -3 -1 -4
-1 -1 -1 -1 -1 -1 -1 -1 -0 -0 -0 -0 -0 -1 -0 0 1 1 1 0 -0 -1 -0 0 1 0 -0 -1 -2 -2 -2 -3 -2 -2 -1 -1 -2 -2 -2 -2 -2 -2 -2 -2 -3 -2 -1 1 1 -0 -1 -1 0 1 1 0 -0 -1 -1 -0 -1 -3 -3 -1 -1 -1 -1 -0 -2
-1 -1 -1 -1 -1 -1 -1 -1 -1 -1 -1 -1 -1 -1 -1 -0 0 1 1 0 -0 -0 -0 -1 0 1 0 -1 -1 -2 -2 -3 -2 -1 -1 -0 -1 -1 -2 -2 -2 -2 -1 -2 -3 -3 -1 2 4 2 0 -2 -1 0 1 0 -0 -1 -1 -1 -3 -4 -2 6 7 6 5 6 9
-0 -1 -1 -1 -1 -1 -1 -1 -1 -1 -1 -1 -1 -1 -1 -1 -0 0 0 -0 -0 -0 -0 -0 -0 0 1 0 -1 -1 -2 -3 -2 -2 -1 -0 -0 -1 -1 -2 -3 -2 -1 -1 -2 -3 -2 2 5 5 3 -1 -2 -1 0 0 -0 -1 -2 -3 -5 -4 1 12 14 11 10 15 27
-0 -0 -0 -1 -0 -0 -0 -1 -1 -1 -1 -1 -1 -1 -1 -2 -1 -0 0 -0 -1 -1 -0 -0 -0 -0 0 0 -0 -1 -1 -2 -2 -2 -1 -1 -1 -1 -2 -2 -3 -3 -2 -1 -1 -2 -2 -0 3 5 4 1 -1 -1 -0 0 -0 -1 -3 -4 -5 -4 2 13 20 20 18 19 31
-0 -0 -0 -0 -0 -0 -0 -0 -0 -1 -1 -1 -1 -1 -1 -2 -2 -1 -0 0 -1 -1 -1 -1 0 0 -0 -0 -1 -1 -1 -2 -2 -2 -1 -1 -1 -1 -2 -2 -3 -3 -2 -1 -1 -1 -2 -2 1 3 4 2 1 0 0 0 -1 -2 -3 -4 -5 -4 2 15 30 33 30 25 30
-1 -1 -1 -1 -1 -0 -0 -0 -1 -1 -1 -1 -1 -1 -1 -1 -2 -1 -1 0 0 -1 -1 -2 -1 0 0 -0 -1 -1 -1 -1 -1 -1 -1 -1 -1 -1 -1 -2 -2 -2 -2 -2 -1 -1 -1 -2 -1 -1 1 2 2 3 2 2 -1 -2 -3 -3 -4 -1 8 24 33 33 27 21 22
-1 -1 -1 -1 -1 -1 -1 -1 -1 -2 -2 -1 -1 -1 -1 -1 -1 -1 -1 -0 0 -0 -1 -2 -2 -1 0 1 0 0 0 1 0 -0 -0 -0 -0 -1 -1 -2 -2 -2 -1 -2 -2 -2 -1 -1 -2 -2 -2 -1 2 4 5 5 2 -1 -3 -3 -2 4 13 22 17 11 6 5 6
-1 -1 -1 -1 -1 -1 -1 -2 -2 -2 -2 -2 -1 -1 -1 -1 -1 -1 -1 -1 -1 -1 -1 -2 -2 -2 -1 1 1 1 1 2 2 1 1 0 -0 -1 -1 -2 -2 -1 -1 -2 -2 -2 -1 -2 -2 -2 -2 -1 -0 2 5 7 5 2 -1 -2 -0 4 8 8 -1 -5 -5 -4 -2
-1 -1 -1 -1 -1 -1 -1 -2 -2 -2 -1 -1 -1 -1 -1 -1 -1 -1 -1 -1 -1 -1 -1 -2 -2 -2 -1 0 2 2 2 3 3 3 2 1 0 -0 -1 -1 -1 -1 -1 -3 -2 -1 -1 -1 -1 -1 -1 -0 -0 1 3 6 6 5 2 1 1 2 2 1 -4 -7 -7 -6 -5
-1 -1 -1 -1 -1 -1 -1 -2 -2 -1 -1 -0 0 0 -0 -0 -0 -0 -0 -1 -1 -1 -1 -1 -2 -2 -1 0 2 3 3 3 3 4 4 3 2 1 1 0 -0 -0 -1 -4 -3 -2 -1 -0 -1 -0 0 1 1 1 1 3 5 5 5 3 3 2 1 -0 -3 -5 -7 -7 -6
-2 -2 -2 -2 -1 -1 -2 -2 -1 -1 0 0 0 0 -0 -0 -0 -0 -0 0 -0 -1 -1 -1 -2 -1 -1 0 1 2 3 2 3 4 4 4 3 2 2 2 2 1 0 -3 -4 -3 -1 -0 1 1 1 2 2 2 2 1 3 4 5 5 4 3 2 0 -1 -2 -4 -5 -5
-2 -2 -2 -2 -2 -2 -2 -2 -1 -0 0 0 0 -0 -0 -0 -0 -0 -0 -0 -0 -0 -1 -2 -2 -1 -1 0 1 2 2 2 2 3 4 4 4 3 3 3 3 4 4 2 -2 -4 -3 -1 2 2 2 3 3 4 4 4 3 3 4 5 5 5 4 3 2 1 -0 -2 -2
-2 -2 -2 -2 -2 -2 -2 -2 -1 -1 -0 -0 -0 -0 -0 -0 -0 -0 -1 -1 -1 -1 -1 -2 -2 -2 -1 -0 0 1 1 2 3 3 4 4 4 4 4 4 4 5 6 8 1 -4 -6 -2 3 4 4 4 4 4 5 6 5 4 4 5 6 7 7 7 7 6 5 4 3
-3 -3 -2 -2 -3 -3 -2 -2 -1 -1 -1 -1 -1 -1 -1 -1 -1 -1 -1 -1 -1 -1 -1 -1 -2 -2 -1 -1 -0 0 1 1 2 3 4 4 4 5 6 7 6 4 5 9 4 -4 -8 -2 2 4 4 4 4 4 4 5 6 6 5 5 6 8 9 10 10 11 11 11 10
-3 -3 -3 -3 -3 -3 -2 -2 -2 -2 -2 -2 -2 -2 -2 -2 -1 -1 -1 -1 -1 -1 -1 -0 -1 -1 -1 -1 -0 0 1 1 1 2 3 4 5 6 8 10 8 4 2 6 3 -3 -6 -2 0 1 2 3 3 3 3 4 5 5 6 5 6 7 8 10 11 12 13 13 12
-3 -3 -3 -3 -3 -2 -2 -2 -3 -3 -3 -3 -3 -3 -2 -2 -1 -1 -0 0 -0 -1 -1 -1 -1 -1 -1 -1 -1 -0 0 1 1 1 2 3 5 6 9 12 10 4 -1 2 2 0 -1 -1 -3 -3 -2 -0 1 2 2 3 3 4 5 5 5 5 6 7 8 9 9 9 7
-2 -2 -2 -2 -2 -2 -2 -2 -3 -3 -3 -3 -3 -3 -2 -2 -2 -1 -0 1 1 -0 -1 -2 -2 -2 -2 -2 -2 -1 -0 0 1 1 2 3 4 6 8 10 10 5 -0 0 3 2 -1 -3 -7 -7 -6 -3 -0 1 2 3 3 3 3 4 4 4 4 4 4 4 4 4 4
-2 -2 -1 -1 -1 -1 -1 -1 -2 -2 -3 -3 -3 -3 -3 -3 -3 -2 -1 -0 0 0 -0 -1 -1 -1 -1 -1 -1 -1 -1 0 1 2 2 2 3 5 7 9 10 7 4 2 5 2 -3 -5 -8 -8 -6 -3 -0 2 3 3 3 3 3 3 3 4 4 3 2 2 2 3 5
-1 -1 -1 -1 -0 -0 -1 -1 -1 -2 -2 -3 -3 -3 -3 -3 -2 -2 -1 -1 -0 -0 -0 -0 -0 0 0 0 -0 -0 -0 1 2 2 2 1 2 4 6 9 9 8 5 4 5 1 -4 -4 -6 -6 -5 -3 -0 2 3 4 4 4 3 3 3 3 3 2 2 2 3 4 5
0 -0 -0 -0 -0 -0 -1 -1 -1 -1 -2 -2 -3 -3 -4 -3 -2 -1 -1 -0 -0 -0 -1 -1 -1 -0 -0 -0 -1 -1 -0 1 2 3 2 1 1 2 5 8 9 7 6 5 3 0 -2 -3 -4 -6 -6 -5 -3 -0 2 3 4 4 4 4 3 2 2 1 0 1 2 3 5
-0 -0 -0 -0 -1 -1 -1 -1 -1 -2 -2 -2 -2 -3 -3 -3 -3 -2 -1 -0 -0 -0 -0 -1 -1 -1 -1 -1 -2 -2 -1 0 2 3 3 2 1 2 4 7 7 6 6 8 3 3 3 -2 -4 -6 -8 -8 -6 -3 -1 1 3 4 5 5 4 4 3 1 -1 -1 -0 1 2
-1 -1 -1 -1 -1 -1 -1 -2 -2 -3 -3 -3 -3 -2 -2 -2 -3 -3 -2 -1 -1 -0 -0 0 1 0 -0 -1 -2 -2 -1 -0 2 4 4 3 2 2 4 7 7 7 6 8 4 6 7 0 -4 -7 -8 -9 -8 -6 -3 -1 0 2 3 5 5 6 5 4 1 -0 -1 -1 0
-2 -2 -2 -2 -2 -2 -2 -3 -3 -3 -4 -4 -4 -4 -3 -2 -2 -2 -2 -2 -1 -0 0 1 2 2 1 1 -1 -1 -1 -0 2 3 4 4 3 2 3 6 8 8 7 6 4 4 5 5 -2 -6 -8 -9 -9 -8 -6 -4 -2 -1 1 2 4 5 6 6 4 3 2 1 1
-2 -2 -2 -2 -2 -2 -3 -3 -4 -4 -4 -4 -5 -5 -4 -4 -3 -2 -3 -3 -2 -1 0 1 2 2 2 2 0 -0 -0 0 1 2 3 3 3 2 3 4 8 9 8 6 5 2 2 10 5 -0 -5 -7 -9 -9 -8 -6 -5 -3 -2 -0 1 2 4 5 6 5 5 5 3
-2 -3 -3 -3 -3 -3 -3 -3 -4 -4 -4 -5 -4 -4 -4 -3 -3 -3 -3 -4 -3 -3 -2 -1 1 2 2 2 1 1 0 0 -0 -0 1 2 2 2 2 2 6 8 9 7 6 3 1 4 12 9 2 -4 -6 -8 -8 -7 -6 -5 -4 -3 -2 -0 1 2 4 5 5 6 5
-2 -3 -3 -3 -3 -3 -3 -2 -2 -3 -5 -5 -5 -4 -4 -4 -4 -4 -4 -4 -4 -4 -3 -2 -0 1 2 1 1 1 0 0 -1 -1 -1 1 2 2 1 1 3 6 8 8 7 5 2 -2 10 11 5 -1 -4 -5 -6 -6 -6 -6 -6 -5 -4 -3 -2 -1 1 2 4 5 5
-3 -2 -2 -3 -3 -3 -3 -1 -0 -1 -3 -5 -6 -6 -5 -5 -5 -4 -4 -3 -3 -3 -3 -3 -1 0 1 1 0 -0 -0 -1 -1 -1 -1 1 2 2 2 1 1 3 6 8 7 6 4 1 5 6 5 2 -1 -2 -3 -4 -5 -5 -6 -7 -7 -6 -5 -4 -2 -0 1 3 4
-2 -2 -2 -2 -2 -3 -2 -1 1 0 -2 -5 -6 -6 -5 -4 -4 -4 -3 -3 -3 -3 -3 -3 -2 -1 -0 -0 -1 -1 -1 -1 -1 -1 -0 1 3 3 3 2 1 2 4 6 7 7 5 3 3 4 4 3 2 1 -0 -1 -2 -4 -5 -6 -7 -7 -7 -6 -5 -3 -1 1 2
Height
3008 3006 3004 3003 3001 2999 2998 2996 2995 2993 2992 2990 2989 2987 2985 2984 2983 2981 2980 2978 2977 2975 2974 2973 2971 2970 2969 2969 2968 2967 2966 2965 2964 2964 2963 2963 2962 2961 2960 2959 2958 2957 2956 2956 2955 2954 2954 2953 2953 2952 2952 2953 2953 2954 2954 2955 2955 2955 2956 2957 2959 2960 2962 2963 2964 2965 2967 2969 2969
3006 3004 3003 3001 2999 2997 2996 2994 2993 2991 2990 2988 2987 2985 2983 2982 2980 2979 2978 2976 2975 2973 2971 2970 2969 2968 2967 2966 2965 2964 2963 2962 2962 2961 2960 2959 2959 2958 2957 2956 2955 2954 2953 2952 2951 2950 2950 2949 2949 2949 2949 2949 2949 2949 2950 2951 2951 2952 2952 2953 2955 2956 2958 2959 2960 2962 2964 2965 2966
3005 3003 3001 2999 2998 2996 2994 2993 2991 2989 2988 2986 2985 2983 2981 2980 2978 2977 2975 2974 2973 2971 2969 2968 2967 2966 2965 2964 2963 2962 2961 2959 2959 2958 2957 2956 2956 2955 2954 2953 2952 2951 2950 2949 2948 2947 2946 2945 2945 2944 2944 2945 2945 2946 2946 2947 2948 2948 2949 2949 2951 2952 2954 2955 2957 2959 2960 2961 2963
3003 3001 2999 2998 2996 2994 2992 2990 2989 2987 2986 2984 2983 2981 2979 2978 2976 2974 2973 2972 2970 2969 2968 2966 2965 2964 2963 2961 2960 2959 2958 2957 2955 2954 2954 2954 2953 2952 2951 2950 2949 2948 2947 2946 2945 2944 2943 2942 2941 2941 2940 2941 2941 2942 2943 2943 2944 2944 2945 2945 2947 2949 2950 2951 2953 2955 2957 2958 2959
3002 2999 2998 2996 2994 2992 2990 2989 2987 2985 2984 2982 2981 2979 2977 2976 2974 2973 2971 2970 2969 2967 2965 2964 2963 2962 2960 2959 2958 2957 2955 2954 2953 2952 2951 2950 2950 2949 2948 2947 2946 2945 2944 2943 2942 2941 2939 2938 2938 2937 2937 2937 2938 2938 2939 2940 2941 2941 2941 2942 2944 2945 2946 2948 2949 2951 2953 2954 2956
2999 2998 2996 2994 2992 2990 2989 2987 2985 2983 2981 2980 2979 2977 2975 2974 2972 2970 2969 2968 2966 2965 2963 2962 2961 2959 2958 2957 2955 2954 2953 2952 2951 2949 2949 2948 2947 2946 2945 2945 2944 2943 2941 2940 2939 2938 2937 2935 2934 2934 2934 2934 2934 2935 2936 2937 2938 2938 2938 2939 2940 2941 2943 2944 2945 2948 2949 2951 2952
2997 2995 2994 2992 2990 2989 2987 2985 2983 2981 2979 2978 2976 2975 2973 2972 2970 2969 2967 2965 2964 2963 2961 2960 2959 2957 2956 2954 2953 2952 2950 2949 2948 2947 2946 2945 2944 2944 2943 2942 2941 2940 2939 2938 2936 2935 2934 2933 2932 2931 2931 2931 2932 2932 2933 2934 2934 2935 2935 2936 2937 2938 2939 2940 2942 2944 2946 2947 2949
2996 2994 2992 2990 2988 2986 2985 2983 2981 2979 2978 2976 2974 2973 2971 2969 2968 2966 2965 2964 2962 2960 2959 2958 2956 2955 2954 2952 2950 2949 2948 2947 2946 2945 2944 2943 2942 2941 2940 2939 2939 2938 2937 2935 2934 2933 2932 2931 2930 2929 2929 2929 2929 2930 2931 2932 2932 2932 2932 2933 2934 2934 2935 2937 2938 2940 2942 2943 2945
2994 2992 2990 2988 2986 2984 2983 2981 2979 2977 2976 2974 2972 2971 2969 2967 2966 2964 2963 2961 2960 2959 2957 2955 2954 2953 2951 2950 2949 2947 2945 2944 2943 2943 2942 2941 2940 2939 2938 2937 2936 2935 2934 2933 2932 2930 2929 2929 2928 2928 2927 2927 2928 2928 2929 2929 2929 2929 2930 2930 2931 2931 2932 2934 2935 2936 2938 2939 2941
2992 2990 2988 2986 2984 2982 2981 2979 2977 2975 2974 2972 2970 2969 2967 2965 2964 2962 2960 2959 2958 2956 2955 2954 2952 2951 2949 2948 2947 2945 2944 2942 2941 2940 2940 2939 2938 2937 2936 2935 2934 2933 2932 2931 2929 2929 2928 2927 2927 2926 2926 2926 2926 2926 2926 2927 2927 2927 2928 2928 2928 2929 2929 2930 2931 2933 2935 2936 2938
2990 2988 2986 2984 2982 2980 2979 2977 2975 2973 2972 2970 2968 2967 2965 2963 2962 2960 2958 2957 2956 2954 2953 2952 2950 2949 2947 2946 2944 2943 2942 2940 2939 2939 2938 2937 2936 2935 2934 2934 2932 2931 2930 2929 2928 2927 2926 2926 2925 2925 2925 2925 2924 2924 2925 2925 2925 2926 2925 2925 2926 2926 2927 2928 2929 2930 2932 2934 2935
2988 2986 2984 2982 2980 2978 2976 2975 2973 2971 2969 2968 2966 2964 2963 2961 2959 2958 2956 2955 2954 2953 2951 2950 2948 2947 2945 2944 2943 2941 2940 2939 2938 2937 2936 2935 2934 2934 2933 2932 2931 2930 2929 2928 2926 2925 2925 2924 2924 2924 2924 2924 2923 2923 2923 2924 2924 2924 2924 2924 2924 2924 2925 2926 2927 2928 2929 2930 2932
2986 2984 2982 2980 2978 2976 2974 2973 2971 2969 2968 2966 2964 2962 2961 2959 2958 2956 2954 2953 2952 2950 2949 2948 2947 2945 2944 2942 2941 2939 2938 2937 2936 2935 2934 2934 2933 2932 2931 2930 2929 2928 2927 2926 2925 2924 2924 2924 2923 2923 2922 2922 2922 2922 2922 2922 2922 2922 2922 2922 2923 2923 2924 2925 2926 2926 2927 2927 2929
2984 2982 2980 2978 2976 2974 2972 2971 2969 2967 2966 2964 2962 2960 2959 2957 2955 2954 2952 2951 2949 2948 2947 2946 2945 2944 2942 2941 2939 2938 2937 2935 2934 2934 2933 2932 2931 2930 2929 2929 2928 2927 2926 2925 2924 2923 2923 2922 2922 2922 2921 2921 2920 2920 2920 2920 2920 2920 2920 2921 2922 2922 2923 2924 2925 2925 2925 2926 2927
2983 2980 2978 2976 2974 2972 2970 2969 2967 2965 2964 2962 2960 2958 2956 2955 2953 2952 2950 2949 2948 2946 2945 2944 2943 2942 2941 2939 2938 2936 2935 2934 2933 2932 2931 2931 2930 2929 2928 2927 2926 2926 2925 2924 2923 2922 2921 2921 2921 2920 2920 2919 2919 2919 2919 2919 2919 2919 2919 2920 2920 2921 2923 2924 2924 2924 2924 2925 2927
2981 2979 2976 2974 2972 2970 2968 2966 2965 2963 2961 2960 2958 2956 2954 2953 2951 2949 2948 2947 2945 2944 2944 2942 2941 2940 2939 2938 2936 2935 2934 2933 2932 2931 2930 2929 2928 2927 2927 2926 2925 2924 2924 2923 2922 2921 2920 2920 2919 2919 2919 2918 2918 2917 2917 2917 2918 2918 2918 2919 2919 2920 2921 2923 2924 2924 2924 2924 2925
2979 2977 2974 2973 2970 2969 2967 2965 2963 2961 2959 2958 2956 2954 2952 2951 2949 2948 2946 2944 2944 2942 2942 2941 2939 2939 2937 2936 2935 2934 2933 2932 2930 2929 2929 2928 2927 2926 2925 2924 2924 2924 2923 2922 2921 2920 2920 2919 2918 2918 2917 2917 2916 2916 2916 2916 2916 2916 2917 2918 2919 2919 2920 2921 2922 2923 2923 2923 2923
2977 2975 2973 2971 2969 2967 2965 2963 2961 2959 2958 2956 2954 2952 2950 2949 2947 2946 2944 2943 2941 2940 2939 2939 2938 2937 2936 2934 2934 2933 2932 2930 2929 2928 2927 2926 2925 2925 2924 2924 2923 2923 2922 2921 2920 2919 2919 2918 2917 2916 2916 2915 2915 2915 2915 2915 2915 2915 2916 2917 2917 2918 2919 2919 2921 2921 2922 2922 2922
2975 2973 2971 2969 2967 2965 2963 2961 2959 2958 2956 2954 2952 2951 2949 2947 2945 2944 2942 2941 2940 2939 2938 2937 2936 2935 2934 2933 2932 2931 2930 2929 2928 2927 2926 2925 2924 2924 2923 2923 2922 2922 2921 2920 2919 2918 2917 2916 2916 2915 2914 2914 2914 2914 2914 2914 2914 2914 2915 2915 2916 2917 2917 2918 2918 2918 2918 2918 2918
2973 2971 2969 2967 2965 2964 2962 2959 2958 2956 2954 2952 2951 2949 2947 2946 2944 2942 2940 2939 2938 2937 2936 2935 2934 2933 2933 2932 2931 2930 2929 2928 2927 2926 2925 2924 2924 2923 2922 2922 2922 2921 2920 2919 2918 2917 2916 2915 2914 2914 2913 2913 2913 2913 2913 2913 2913 2913 2914 2914 2915 2915 2915 2915 2914 2914 2914 2914 2914
2972 2969 2967 2965 2964 2962 2960 2958 2956 2954 2953 2951 2949 2948 2946 2944 2943 2941 2939 2937 2936 2935 2934 2933 2932 2931 2931 2930 2930 2929 2928 2927 2926 2925 2924 2923 2923 2922 2921 2921 2921 2920 2919 2919 2917 2916 2915 2914 2913 2912 2912 2912 2911 2911 2911 2911 2912 2912 2912 2913 2913 2913 2913 2912 2912 2912 2913 2913 2914
2970 2968 2966 2964 2962 2960 2958 2956 2954 2953 2951 2950 2948 2947 2945 2943 2941 2939 2938 2936 2934 2933 2932 2931 2930 2929 2929 2929 2928 2928 2927 2926 2925 2924 2923 2923 2922 2921 2921 2920 2920 2919 2919 2918 2916 2916 2914 2913 2912 2911 2911 2910 2910 2909 2909 2909 2910 2911 2911 2911 2912 2911 2911 2911 2911 2911 2912 2913 2913
2969 2967 2965 2963 2960 2959 2957 2954 2953 2951 2950 2949 2947 2945 2944 2942 2940 2938 2936 2934 2933 2931 2930 2929 2929 2928 2927 2927 2927 2926 2925 2924 2924 2923 2922 2922 2921 2921 2920 2920 2919 2919 2918 2916 2915 2915 2914 2913 2911 2910 2910 2909 2909 2909 2908 2908 2908 2909 2909 2910 2910 2910 2910 2910 2910 2910 2911 2912 2912
2968 2966 2964 2961 2959 2957 2955 2953 2951 2950 2949 2947 2945 2944 2942 2940 2939 2937 2935 2933 2932 2930 2929 2927 2927 2926 2926 2925 2925 2924 2924 2923 2922 2922 2921 2921 2920 2920 2919 2919 2919 2918 2917 2916 2914 2914 2914 2912 2911 2910 2909 2909 2908 2908 2908 2907 2907 2907 2908 2908 2909 2909 2909 2909 2909 2909 2910 2910 2911
2967 2964 2962 2960 2958 2956 2954 2952 2950 2948 2947 2945 2943 2942 2940 2939 2937 2935 2934 2932 2930 2929 2927 2926 2925 2924 2924 2924 2923 2922 2922 2921 2921 2920 2920 2920 2919 2919 2919 2919 2918 2918 2917 2915 2914 2914 2913 2911 2910 2910 2909 2908 2908 2907 2907 2907 2906 2906 2906 2907 2907 2907 2907 2908 2908 2908 2909 2909 2910
2966 2964 2961 2959 2957 2955 2953 2951 2949 2947 2945 2943 2942 2940 2938 2937 2935 2934 2932 2930 2929 2927 2925 2924 2923 2922 2922 2921 2921 2920 2920 2919 2919 2919 2919 2918 2918 2918 2918 2918 2917 2917 2916 2915 2914 2912 2910 2909 2910 2909 2908 2907 2907 2907 2906 2906 2906 2906 2906 2906 2906 2906 2906 2906 2907 2907 2908 2908 2909
2964 2962 2960 2958 2956 2954 2952 2949 2948 2945 2944 2942 2940 2938 2936 2934 2933 2932 2930 2929 2927 2925 2924 2923 2921 2920 2920 2919 2919 2919 2918 2918 2917 2917 2917 2917 2917 2917 2917 2917 2916 2915 2914 2914 2914 2910 2908 2908 2908 2908 2907 2907 2906 2905 2905 2905 2905 2905 2905 2905 2905 2905 2905 2905 2906 2906 2907 2907 2908
2963 2961 2959 2957 2954 2953 2950 2949 2946 2944 2942 2940 2938 2936 2934 2933 2931 2930 2928 2927 2925 2924 2923 2921 2920 2919 2918 2917 2917 2917 2916 2916 2915 2915 2915 2915 2915 2916 2916 2916 2915 2914 2913 2914 2911 2908 2906 2907 2907 2906 2906 2905 2905 2904 2904 2904 2904 2904 2905 2905 2904 2904 2904 2904 2905 2905 2906 2906 2907
2962 2959 2958 2955 2954 2951 2949 2947 2945 2943 2940 2939 2936 2934 2932 2931 2929 2928 2926 2925 2924 2922 2921 2919 2918 2917 2916 2915 2915 2914 2914 2914 2914 2914 2914 2914 2914 2914 2915 2915 2913 2911 2910 2911 2909 2906 2905 2905 2904 2904 2904 2904 2904 2903 2903 2903 2903 2903 2904 2904 2904 2904 2904 2904 2904 2904 2905 2905 2906
2960 2959 2956 2954 2952 2950 2948 2946 2944 2941 2939 2937 2935 2933 2931 2929 2927 2925 2924 2923 2922 2920 2919 2918 2916 2915 2914 2914 2913 2912 2912 2912 2912 2912 2912 2912 2912 2912 2913 2913 2911 2909 2907 2908 2907 2905 2903 2903 2902 2902 2902 2902 2902 2902 2902 2901 2901 2902 2902 2902 2903 2903 2903 2903 2903 2903 2904 2904 2905
2959 2957 2955 2953 2951 2949 2947 2945 2943 2940 2938 2936 2934 2931 2929 2927 2925 2923 2922 2921 2919 2918 2917 2916 2915 2914 2913 2912 2911 2911 2910 2910 2910 2910 2910 2910 2910 2910 2911 2911 2909 2907 2906 2907 2906 2903 2900 2900 2900 2900 2900 2900 2900 2900 2900 2900 2900 2900 2900 2901 2901 2902 2902 2902 2902 2903 2903 2904 2904
2958 2956 2954 2952 2950 2948 2946 2944 2941 2939 2937 2934 2932 2929 2927 2925 2923 2921 2920 2918 2917 2916 2915 2914 2913 2912 2911 2910 2909 2909 2909 2909 2909 2909 2909 2908 2908 2908 2909 2909 2908 2906 2905 2905 2904 2901 2899 2899 2899 2898 2898 2898 2898 2898 2899 2899 2899 2899 2899 2899 2899 2900 2900 2901 2901 2902 2902 2903 2903
2957 2955 2953 2951 2949 2946 2944 2942 2940 2938 2935 2933 2930 2928 2925 2923 2921 2919 2918 2916 2915 2914 2913 2912 2911 2910 2909 2909 2908 2907 2907 2907 2907 2907 2907 2907 2906 2906 2907 2907 2906 2904 2903 2903 2902 2900 2898 2897 2897 2896 2896 2896 2896 2896 2896 2897 2897 2897 2897 2897 2897 2898 2899 2899 2899 2900 2901 2902 2902
2956 2954 2951 2949 2947 2945 2943 2941 2938 2936 2934 2931 2929 2926 2924 2921 2919 2917 2916 2914 2913 2911 2910 2909 2909 2908 2907 2906 2906 2905 2905 2905 2905 2906 2905 2905 2905 2905 2905 2905 2904 2903 2902 2901 2900 2901 2899 2895 2895 2894 2894 2894 2894 2894 2894 2894 2895 2895 2895 2895 2895 2896 2896 2897 2897 2898 2899 2900 2901
2954 2952 2950 2948 2946 2944 2941 2939 2937 2934 2932 2929 2927 2924 2922 2919 2917 2915 2913 2912 2910 2909 2908 2907 2907 2906 2905 2905 2904 2904 2904 2904 2904 2904 2904 2904 2903 2903 2903 2903 2903 2902 2901 2900 2899 2900 2899 2895 2894 2893 2893 2893 2893 2893 2893 2893 2893 2893 2893 2893 2893 2893 2894 2894 2895 2896 2897 2898 2899
2953 2950 2948 2946 2944 2942 2940 2937 2935 2933 2930 2928 2925 2922 2920 2918 2915 2913 2911 2910 2908 2907 2906 2905 2905 2904 2904 2903 2903 2902 2902 2902 2902 2902 2902 2902 2902 2902 2902 2902 2901 2901 2900 2899 2898 2898 2898 2897 2894 2892 2891 2891 2890 2891 2891 2891 2891 2891 2891 2891 2891 2891 2891 2892 2892 2893 2894 2895 2896
2951 2949 2947 2945 2943 2941 2939 2936 2934 2931 2929 2926 2924 2921 2918 2916 2914 2911 2909 2908 2906 2905 2904 2903 2903 2902 2902 2901 2901 2900 2900 2900 2900 2900 2900 2900 2900 2900 2900 2900 2900 2900 2899 2898 2897 2896 2896 2898 2895 2892 2890 2889 2889 2889 2889 2889 2889 2889 2889 2889 2889 2889 2889 2889 2890 2890 2891 2892 2893
2950 2948 2946 2944 2942 2939 2937 2935 2933 2930 2928 2925 2923 2920 2917 2915 2912 2910 2908 2906 2904 2903 2902 2901 2901 2900 2900 2899 2899 2899 2899 2899 2898 2898 2899 2899 2899 2899 2899 2899 2899 2899 2898 2897 2896 2895 2895 2895 2897 2894 2890 2889 2888 2887 2887 2888 2888 2888 2888 2888 2888 2887 2887 2888 2888 2888 2889 2890 2891
2949 2947 2945 2943 2940 2939 2936 2934 2932 2929 2927 2924 2922 2919 2917 2914 2911 2909 2906 2904 2903 2901 2900 2899 2899 2899 2898 2898 2897 2897 2897 2897 2896 2896 2897 2897 2897 2897 2897 2897 2897 2897 2897 2896 2895 2894 2894 2893 2895 2894 2891 2889 2887 2887 2886 2886 2886 2886 2886 2887 2886 2886 2886 2886 2886 2887 2887 2888 2889
2948 2946 2944 2942 2940 2938 2936 2934 2932 2929 2927 2924 2921 2919 2916 2913 2910 2908 2906 2904 2902 2900 2899 2898 2898 2897 2897 2896 2895 2895 2895 2895 2895 2895 2895 2895 2896 2896 2896 2896 2895 2895 2895 2895 2894 2894 2893 2893 2893 2893 2891 2889 2887 2886 2886 2886 2886 2886 2886 2886 2886 2886 2886 2885 2885 2886 2886 2886 2887
2947 2945 2943 2941 2939 2937 2935 2933 2931 2929 2927 2924 2921 2919 2916 2913 2910 2908 2905 2904 2902 2900 2899 2898 2897 2896 2895 2895 2894 2894 2894 2893 2893 2894 2894 2894 2895 2895 2895 2894 2894 2894 2894 2894 2893 2893 2892 2892 2892 2892 2890 2888 2887 2887 2886 2886 2885 2885 2885 2885 2885 2885 2885 2885 2885 2885 2885 2885 2885